Hourly Data Report for September 14, 2017

All times are specified in Local Standard Time (LST). Add 1 hour to adjust for Daylight Saving Time where and when it is observed.

WINNIPEG A CS
MANITOBA

49°55'00.000" N
97°14'58.000" W
238.70 m
502S001
71849
XWG

Download Data

Hourly Data (September 2017)
Hourly Data Report for September 14, 2017
Temp Definition
°C
Dew Point Temp Definition
°C
Rel Hum Definition
%
Wind Dir Definition
10's deg

Wind Spd Definition
km/h
Visibility Definition
km
Stn Press Definition
kPa
Hmdx Definition


Wind Chill Definition


Weather Definition


TIME
00:00 13.5 8.5 72 2 18   97.91     LegendNANA
01:00 13.4 8.8 74 2 15   97.94     LegendNANA
02:00 13.2 8.9 75 2 18   97.92     LegendNANA
03:00 12.9 9.1 78 2 14   98.00     LegendNANA
04:00 13.0 8.9 76 4 18   97.98     LegendNANA
05:00 12.1 7.5 73 4 14   98.04     LegendNANA
06:00 11.3 6.5 72 4 16   98.11     LegendNANA
07:00 11.4 6.5 72 2 14   98.14     LegendNANA
08:00 12.2 7.0 71 3 16   98.16     LegendNANA
09:00 13.0 7.8 71 2 21   98.21     LegendNANA
10:00 13.2 7.9 70 5 17   98.17     LegendNANA
11:00 13.2 8.4 73 2 17   98.24     LegendNANA
12:00 15.3 9.4 68 2 27   98.19     LegendNANA
13:00 16.7 8.9 60 2 29   98.18     LegendNANA
14:00 17.5 7.4 51 2 30   98.20     LegendNANA
15:00 16.4 8.6 60 2 27   98.31     LegendNANA
16:00 14.6 8.3 66 1 24   98.39     LegendNANA
17:00 13.3 8.2 71 1 19   98.45     LegendNANA
18:00 12.2 8.1 76 35 22   98.50     LegendNANA
19:00 11.9 8.4 79 35 21   98.54     LegendNANA
20:00 11.7 8.6 81 1 22   98.55     LegendNANA
21:00 11.4 8.2 81 1 22   98.59     LegendNANA
22:00 11.3 8.1 81 36 18   98.66     LegendNANA
23:00 11.3 8.0 80 2 14   98.66     LegendNANA

Notes on Data Quality.

Legend

  • E = Estimated
  • M = Missing
  • NA = Not Available
  • ‡ = Partner data that is not subject to review by the National Climate Archives
Date modified: